| time (UTC) | temp F | wind direction | speed MPH | gust MPH | rain 1hr in | rain 24hr in | rain mn in | humidity % | barometer mb |
| 20260906060033 | 69 | 0 | 0.0 | 0.0 | 0.00 | 0.00 | 0.00 | 82 | 1022.8 |
| 20260906053042 | 68 | 0 | 0.0 | 0.0 | 0.00 | 0.00 | 0.00 | 83 | 1022.5 |
| 20260906051534 | 68 | 259 | 0.0 | 1.0 | 0.00 | 0.00 | 0.00 | 84 | 1022.6 |
| 20260906050035 | 68 | 0 | 0.0 | 1.0 | 0.00 | 0.00 | 0.00 | 84 | 1022.4 |
| 20260906043035 | 67 | 0 | 0.0 | 1.0 | 0.00 | 0.00 | 0.00 | 83 | 1022.4 |
| 20260906034542 | 69 | 0 | 0.0 | 1.0 | 0.00 | 0.00 | 0.00 | 81 | 1022.2 |
| 20260906033035 | 69 | 0 | 0.0 | 0.0 | 0.00 | 0.00 | 0.00 | 80 | 1022.1 |
| 20260906031536 | 69 | 0 | 0.0 | 1.0 | 0.00 | 0.00 | 0.00 | 80 | 1022.1 |
| 20260906024538 | 69 | 0 | 0.0 | 1.0 | 0.00 | 0.00 | 0.00 | 79 | 1022.2 |
| 20260906023034 | 69 | 259 | 0.0 | 1.0 | 0.00 | 0.00 | 0.00 | 77 | 1022.1 |
| 20260906021533 | 69 | 0 | 0.0 | 0.0 | 0.00 | 0.00 | 0.00 | 76 | 1022.1 |
| 20260906014545 | 70 | 259 | 0.0 | 1.0 | 0.00 | 0.00 | 0.00 | 75 | 1022.2 |
| 20260906011535 | 70 | 0 | 0.0 | 1.0 | 0.00 | 0.00 | 0.00 | 70 | 1022.2 |
| 20260906010036 | 71 | 0 | 0.0 | 1.0 | 0.00 | 0.00 | 0.00 | 66 | 1022.2 |
| 20260906001535 | 71 | 0 | 0.0 | 0.0 | 0.00 | 0.00 | 0.00 | 65 | 1022.2 |
| 20260906000040 | 71 | 0 | 0.0 | 0.0 | 0.00 | 0.00 | 0.00 | 64 | 1022.1 |
| 20260905233039 | 71 | 0 | 0.0 | 0.0 | 0.00 | 0.00 | 0.00 | 63 | 1022.3 |
| 20260905231541 | 71 | 0 | 0.0 | 0.0 | 0.00 | 0.00 | 0.00 | 65 | 1022.2 |
| 20260905224535 | 72 | 0 | 0.0 | 0.0 | 0.00 | 0.00 | 0.00 | 63 | 1022.3 |
| 20260905223035 | 72 | 0 | 0.0 | 0.0 | 0.00 | 0.00 | 0.00 | 63 | 1022.5 |
| 20260905221537 | 73 | 0 | 0.0 | 0.0 | 0.00 | 0.00 | 0.00 | 64 | 1022.5 |
| 20260905220033 | 73 | 0 | 0.0 | 0.0 | 0.00 | 0.00 | 0.00 | 65 | 1022.3 |
| 20260905213034 | 74 | 0 | 0.0 | 1.0 | 0.00 | 0.00 | 0.00 | 57 | 1022.3 |
| 20260905211538 | 74 | 0 | 0.0 | 1.0 | 0.00 | 0.00 | 0.00 | 58 | 1022.2 |
| 20260905210033 | 74 | 0 | 0.0 | 3.0 | 0.00 | 0.00 | 0.00 | 60 | 1022.1 |
| 20260905204537 | 74 | 0 | 0.0 | 0.0 | 0.00 | 0.00 | 0.00 | 64 | 1022.2 |
| 20260905203034 | 75 | 0 | 0.0 | 0.0 | 0.00 | 0.00 | 0.00 | 57 | 1022.3 |
| 20260905201534 | 75 | 0 | 0.0 | 0.0 | 0.00 | 0.00 | 0.00 | 57 | 1022.3 |
| 20260905200035 | 76 | 291 | 0.0 | 1.0 | 0.00 | 0.00 | 0.00 | 56 | 1022.2 |
| 20260905193042 | 76 | 273 | 1.0 | 6.0 | 0.00 | 0.00 | 0.00 | 56 | 1022.2 |
| 20260905191539 | 77 | 285 | 1.0 | 3.0 | 0.00 | 0.00 | 0.00 | 53 | 1022.0 |
| 20260905190035 | 77 | 275 | 0.0 | 2.0 | 0.00 | 0.00 | 0.00 | 53 | 1021.8 |
| 20260905184533 | 78 | 0 | 0.0 | 3.0 | 0.00 | 0.00 | 0.00 | 50 | 1021.6 |
| 20260905183036 | 79 | 278 | 1.0 | 6.0 | 0.00 | 0.00 | 0.00 | 49 | 1021.5 |
| 20260905180037 | 80 | 0 | 3.0 | 15.0 | 0.00 | 0.00 | 0.00 | 44 | 1020.8 |
| 20260905174533 | 80 | 217 | 5.0 | 15.0 | 0.00 | 0.00 | 0.00 | 44 | 1020.8 |
| 20260905173034 | 81 | 112 | 4.0 | 14.0 | 0.00 | 0.00 | 0.00 | 43 | 1020.7 |
| 20260905171537 | 82 | 212 | 5.0 | 18.0 | 0.00 | 0.00 | 0.00 | 43 | 1020.6 |
| 20260905170038 | 83 | 186 | 5.0 | 17.0 | 0.00 | 0.00 | 0.00 | 40 | 1020.5 |
| 20260905164534 | 84 | 263 | 6.0 | 18.0 | 0.00 | 0.00 | 0.00 | 39 | 1020.5 |
| 20260905163038 | 85 | 221 | 4.0 | 20.0 | 0.00 | 0.00 | 0.00 | 37 | 1020.6 |
| 20260905161534 | 85 | 221 | 6.0 | 19.0 | 0.00 | 0.00 | 0.00 | 36 | 1020.4 |
| 20260905160037 | 86 | 183 | 4.0 | 15.0 | 0.00 | 0.00 | 0.00 | 37 | 1020.4 |
| 20260905153037 | 87 | 200 | 6.0 | 19.0 | 0.00 | 0.00 | 0.00 | 38 | 1020.4 |
| 20260905151536 | 88 | 245 | 6.0 | 17.0 | 0.00 | 0.00 | 0.00 | 37 | 1020.3 |
| 20260905144535 | 89 | 296 | 4.0 | 16.0 | 0.00 | 0.00 | 0.00 | 40 | 1020.5 |
| 20260905143038 | 89 | 255 | 4.0 | 17.0 | 0.00 | 0.00 | 0.00 | 41 | 1020.4 |
| 20260905140037 | 89 | 295 | 4.0 | 14.0 | 0.00 | 0.00 | 0.00 | 41 | 1020.5 |
| 20260905134544 | 90 | 212 | 3.0 | 13.0 | 0.00 | 0.00 | 0.00 | 41 | 1020.5 |
| 20260905133033 | 90 | 198 | 5.0 | 14.0 | 0.00 | 0.00 | 0.00 | 39 | 1020.7 |
| 20260905131538 | 91 | 198 | 1.0 | 11.0 | 0.00 | 0.00 | 0.00 | 40 | 1020.7 |
| 20260905130033 | 89 | 231 | 3.0 | 14.0 | 0.00 | 0.00 | 0.00 | 39 | 1021.0 |
| 20260905124535 | 89 | 207 | 6.0 | 16.0 | 0.00 | 0.00 | 0.00 | 41 | 1021.0 |
| 20260905123035 | 89 | 176 | 4.0 | 14.0 | 0.00 | 0.00 | 0.00 | 41 | 1021.2 |
| 20260905121536 | 89 | 220 | 4.0 | 13.0 | 0.00 | 0.00 | 0.00 | 41 | 1021.3 |
| 20260905120037 | 89 | 89 | 4.0 | 13.0 | 0.00 | 0.00 | 0.00 | 40 | 1021.5 |
| 20260905114534 | 89 | 235 | 5.0 | 13.0 | 0.00 | 0.00 | 0.00 | 40 | 1021.7 |
| 20260905113037 | 88 | 263 | 4.0 | 14.0 | 0.00 | 0.00 | 0.00 | 39 | 1021.7 |
| 20260905111535 | 89 | 226 | 3.0 | 14.0 | 0.00 | 0.00 | 0.00 | 40 | 1021.5 |
| 20260905110036 | 88 | 189 | 4.0 | 15.0 | 0.00 | 0.00 | 0.00 | 41 | 1021.6 |
| 20260905104532 | 88 | 154 | 3.0 | 14.0 | 0.00 | 0.00 | 0.00 | 41 | 1021.7 |
| 20260905103043 | 88 | 338 | 1.0 | 12.0 | 0.00 | 0.00 | 0.00 | 40 | 1021.9 |
| 20260905101536 | 87 | 230 | 5.0 | 12.0 | 0.00 | 0.00 | 0.00 | 39 | 1022.1 |
| 20260905100039 | 88 | 296 | 4.0 | 13.0 | 0.00 | 0.00 | 0.00 | 39 | 1022.2 |
| 20260905094536 | 87 | 200 | 2.0 | 13.0 | 0.00 | 0.00 | 0.00 | 39 | 1022.4 |
| 20260905093047 | 87 | 288 | 2.0 | 7.0 | 0.00 | 0.00 | 0.00 | 39 | 1022.3 |
| 20260905091537 | 87 | 238 | 2.0 | 8.0 | 0.00 | 0.00 | 0.00 | 40 | 1022.2 |
| 20260905084533 | 85 | 0 | 2.0 | 7.0 | 0.00 | 0.00 | 0.00 | 41 | 1022.1 |
| 20260905083033 | 85 | 0 | 2.0 | 6.0 | 0.00 | 0.00 | 0.00 | 42 | 1021.9 |
| 20260905081534 | 83 | 293 | 0.0 | 2.0 | 0.00 | 0.00 | 0.00 | 42 | 1021.8 |
| 20260905074536 | 82 | 295 | 0.0 | 2.0 | 0.00 | 0.00 | 0.00 | 45 | 1021.7 |
| 20260905073035 | 81 | 294 | 0.0 | 2.0 | 0.00 | 0.00 | 0.00 | 45 | 1021.8 |
| 20260905071534 | 79 | 0 | 0.0 | 1.0 | 0.00 | 0.00 | 0.00 | 47 | 1021.8 |
| 20260905070036 | 77 | 0 | 0.0 | 0.0 | 0.00 | 0.00 | 0.00 | 48 | 1021.7 |
| 20260905063036 | 74 | 0 | 0.0 | 0.0 | 0.00 | 0.00 | 0.00 | 50 | 1021.7 |
| 20260905061535 | 74 | 0 | 0.0 | 0.0 | 0.00 | 0.00 | 0.00 | 50 | 1021.7 |